[[{"header":{"parameterUnit":"m.s-1","parameterCategory":1,"la1":30.2991,"la2":30.254,"lo1":-89.0895,"lo2":-89.0444,"dy":0.0017,"dx":0.0017,"nx":28,"ny":28,"refTime":"2026-02-10T03:00:00:Z","depth":0,"parameterNumber":2,"parameterNumberName":"U-component_of_WINDS"},"data":[0,0,0,0,0,0,0,0,0,0,0,0,0,0,0,0,0,0,0,0,0,0,0,0,0,0,0,0,0,0,0,0,0,0,0,0,0,0,0,0,0,0,0,0,0,0,0,0,0,0,0,0,0,0,0,0,0,0,0.3198,0.3199,0,0.3276,0.3277,0.3278,0.3321,0.3321,0.3321,0.3321,0.3403,0.3405,0.3408,0,0,0,0,0,0,0,0,0,0,0,0,0,0.3087,0.3089,0.3198,0.3199,0.32,0.3276,0.3277,0.3278,0.3321,0.3321,0.3321,0.3321,0.3403,0.3405,0.3408,0,0,0,0,0,0,0,0,0,0,0,0,0,0.3147,0.309,0.3198,0.323,0.3234,0.3276,0.3277,0.3279,0.3321,0.3321,0.3321,0.3321,0.3402,0.3405,0.3408,0.3425,0,0,0.3418,0.3419,0,0,0,0,0,0,0,0,0.3144,0.3151,0.3224,0.3228,0.3232,0.3289,0.3269,0.3328,0.3321,0.3288,0.3321,0.3321,0.3365,0.3371,0.3386,0.3429,0.3432,0.3418,0.342,0.3421,0.3422,0,0,0,0,0,0,0,0.314,0.3148,0.3229,0.3225,0.323,0.3242,0.325,0.328,0.3325,0.329,0.3294,0.3302,0.3367,0.3383,0.3388,0.3434,0.3418,0.3421,0.3423,0.3424,0.3496,0.3496,0,0,0,0,0,0,0.313,0.3145,0.3226,0.3231,0.3187,0.3243,0.3253,0.327,0.3325,0.3333,0.3302,0.3304,0.3377,0.3384,0.3391,0.3416,0.3421,0.3424,0.3426,0.3496,0.3496,0.3496,0,0,0,0,0,0,0.3127,0.3137,0.3223,0.3189,0.3201,0.3245,0.3264,0.3272,0.3287,0.3333,0.3342,0.3309,0.3378,0.3387,0.3417,0.3419,0.3426,0.3429,0.3496,0.3496,0.3496,0.3463,0,0,0,0,0,0,0.3124,0.3136,0.3142,0.3189,0.3202,0.3246,0.3264,0.3273,0.3292,0.3296,0.3342,0.335,0.3379,0.3412,0.342,0.3424,0.3431,0.3496,0.3496,0.3496,0.3465,0.3462,0.3461,0,0,0,0,0,0.312,0.313,0.3142,0.3152,0.3211,0.3246,0.3254,0.3286,0.3292,0.33,0.3329,0.3349,0.3417,0.3414,0.3424,0.3429,0.3496,0.3496,0.3496,0.3465,0.3463,0.3461,0,0,0,0,0,0,0.3082,0.3136,0.315,0.3175,0.3206,0.3253,0.3263,0.3282,0.3311,0.3313,0.3352,0.3362,0.3388,0.3412,0.3407,0.3449,0.3459,0.3461,0.3432,0.343,0.3428,0.3422,0.3434,0,0,0,0,0,0.3077,0.31,0.3147,0.3164,0.3179,0.3218,0.3235,0.3257,0.329,0.3303,0.3335,0.3367,0.3396,0.3415,0.3444,0.3468,0.348,0.3476,0.3474,0.3472,0.3474,0.349,0.3489,0.3496,0.3496,0.3496,0,0,0.3066,0.3099,0.3111,0.3158,0.3184,0.3208,0.3229,0.3253,0.3272,0.3307,0.3337,0.3362,0.34,0.3428,0.3441,0.3448,0.3474,0.3472,0.3471,0.3473,0.349,0.3489,0.3488,0.3496,0.3496,0.3496,0,0,0.3059,0.3085,0.3103,0.3129,0.3168,0.3195,0.3199,0.3244,0.3261,0.3292,0.3319,0.3342,0.3391,0.3418,0.3438,0.3442,0.3461,0.345,0.344,0.3455,0.3454,0.3454,0.3456,0.3457,0.3451,0.3451,0.3451,0,0.3041,0.3078,0.311,0.3134,0.3154,0.3186,0.3206,0.323,0.3276,0.329,0.3296,0.3359,0.3387,0.3422,0.3423,0.3438,0.3445,0.3445,0.3452,0.3452,0.3452,0.3455,0.3455,0.345,0.345,0.345,0.345,0,0.3054,0.3079,0.3089,0.3133,0.3155,0.3176,0.3213,0.3231,0.3251,0.3277,0.3308,0.3344,0.3381,0.3391,0.3411,0.3429,0.3431,0.3444,0.3455,0.3449,0.3452,0.3454,0.3448,0.3448,0.3449,0.3449,0,0,0.3025,0.3087,0.309,0.3111,0.3157,0.3178,0.3201,0.3237,0.3252,0.3284,0.3305,0.3346,0.3358,0.3381,0.3404,0.3417,0.342,0.3429,0.3431,0.3427,0.3443,0.3433,0.3434,0.3433,0.3433,0.3433,0.344,0,0.3025,0.3067,0.3098,0.3129,0.3153,0.3185,0.3205,0.3236,0.3261,0.3287,0.3315,0.3344,0.3357,0.3371,0.3386,0.3416,0.3423,0.3416,0.3454,0.3455,0.3444,0.3435,0.3425,0.3429,0.3441,0.3441,0.3442,0,0.303,0.306,0.3093,0.3138,0.3149,0.3167,0.3203,0.3226,0.3263,0.328,0.3306,0.333,0.3357,0.3366,0.3404,0.3398,0.3416,0.3433,0.3434,0.344,0.3448,0.3441,0.3431,0.3432,0.3444,0.3444,0.3443,0,0.3006,0.3055,0.3082,0.3099,0.3151,0.3163,0.3185,0.3222,0.3242,0.3273,0.3287,0.3322,0.3341,0.3368,0.3401,0.3404,0.3437,0.3448,0.3453,0.3452,0.3459,0.3458,0.3452,0.3469,0.3469,0.3469,0.3469,0,0.3003,0.3022,0.3072,0.3088,0.3111,0.3147,0.3169,0.3195,0.3227,0.325,0.3279,0.33,0.3343,0.3369,0.3395,0.3424,0.3432,0.3448,0.3455,0.3446,0.3444,0.3458,0.3459,0.3469,0.3469,0.3469,0.3469,0,0.2981,0.3014,0.3046,0.3093,0.3105,0.312,0.3161,0.3179,0.3205,0.3234,0.3243,0.3285,0.3318,0.3354,0.3398,0.3416,0.3444,0.3453,0.3431,0.3435,0.3438,0.3438,0.3442,0.3445,0.3459,0.3458,0.3458,0,0.2977,0.2992,0.3041,0.3058,0.308,0.3107,0.3127,0.3163,0.3184,0.3227,0.324,0.3275,0.3304,0.3355,0.3391,0.3425,0.3436,0.3436,0.3442,0.3432,0.3437,0.3436,0.3439,0.3434,0.3434,0.3433,0.3433,0,0.2966,0.2982,0.3011,0.3045,0.3069,0.3097,0.3128,0.314,0.3183,0.3204,0.3238,0.3261,0.3307,0.3341,0.338,0.3405,0.3426,0.3431,0.3434,0.3425,0.3412,0.342,0.3427,0.3431,0.3431,0.3431,0.3431,0.3431,0.2954,0.2969,0.3006,0.3037,0.3063,0.3091,0.311,0.314,0.3168,0.3208,0.3228,0.3261,0.3299,0.3353,0.3377,0.3405,0.3412,0.3416,0.3417,0.3418,0.3416,0.3407,0.3412,0.3412,0.3412,0.3412,0.3412,0,0.2945,0.2971,0.2999,0.304,0.3064,0.3082,0.3117,0.3136,0.3165,0.3198,0.3226,0.3266,0.33,0.3338,0.3374,0.3389,0.34,0.3398,0.3397,0.3403,0.3407,0.3401,0.3388,0.3388,0.3388,0.3388,0.3388,0.3388,0.2944,0.2972,0.2992,0.3034,0.306,0.3093,0.3111,0.3137,0.3164,0.3206,0.3234,0.3258,0.3294,0.3333,0.3366,0.3376,0.3389,0.3383,0.3397,0.34,0.3402,0.3404,0.3399,0.3386,0.3386,0.339,0.339,0.339]},{"header":{"parameterUnit":"m.s-1","parameterCategory":1,"la1":30.2991,"la2":30.254,"lo1":-89.0895,"lo2":-89.0444,"dy":0.0017,"dx":0.0017,"nx":28,"ny":28,"refTime":"2026-02-10T03:00:00:Z","depth":0,"parameterNumber":3,"parameterNumberName":"V-component_of_WINDS"},"data":[0,0,0,0,0,0,0,0,0,0,0,0,0,0,0,0,0,0,0,0,0,0,0,0,0,0,0,0,0,0,0,0,0,0,0,0,0,0,0,0,0,0,0,0,0,0,0,0,0,0,0,0,0,0,0,0,0,0,0.921,0.9209,0,0.9164,0.9163,0.9163,0.9169,0.9169,0.917,0.9171,0.912,0.9118,0.9116,0,0,0,0,0,0,0,0,0,0,0,0,0,0.9299,0.9298,0.921,0.9209,0.9208,0.9164,0.9163,0.9162,0.9168,0.9169,0.917,0.9171,0.912,0.9118,0.9115,0,0,0,0,0,0,0,0,0,0,0,0,0,0.9258,0.9297,0.921,0.9206,0.9205,0.9164,0.9163,0.9162,0.9168,0.9169,0.9171,0.9172,0.9121,0.9118,0.9115,0.9073,0,0,0.9106,0.9104,0,0,0,0,0,0,0,0,0.926,0.9254,0.9207,0.9206,0.9205,0.9173,0.9176,0.9132,0.9168,0.9182,0.9171,0.9172,0.9136,0.9132,0.9121,0.907,0.9068,0.9105,0.9103,0.9102,0.9101,0,0,0,0,0,0,0,0.9263,0.9256,0.9191,0.9207,0.9205,0.9206,0.9201,0.9168,0.9153,0.9181,0.9181,0.9176,0.9136,0.9124,0.912,0.9068,0.9105,0.9103,0.9101,0.91,0.8981,0.898,0,0,0,0,0,0,0.9267,0.9259,0.9193,0.919,0.9236,0.9203,0.9198,0.9182,0.9154,0.915,0.9175,0.9177,0.9128,0.9123,0.9118,0.9067,0.9102,0.9099,0.9097,0.8982,0.8981,0.8979,0,0,0,0,0,0,0.9269,0.9261,0.9195,0.9224,0.9216,0.9201,0.9183,0.9181,0.9169,0.9149,0.9146,0.9166,0.9129,0.9122,0.9084,0.9065,0.9098,0.9095,0.8984,0.8982,0.898,0.8965,0,0,0,0,0,0,0.9272,0.9262,0.9246,0.9224,0.9214,0.9163,0.9182,0.9179,0.9164,0.9165,0.9139,0.9136,0.913,0.9089,0.9081,0.9062,0.9093,0.8985,0.8983,0.898,0.8967,0.8963,0.8959,0,0,0,0,0,0.9275,0.9243,0.9246,0.9238,0.9195,0.9162,0.9156,0.915,0.9162,0.9146,0.9134,0.9137,0.9069,0.9085,0.9076,0.9056,0.8986,0.8983,0.8981,0.8969,0.8963,0.8959,0,0,0,0,0,0,0.9262,0.924,0.9243,0.9203,0.9184,0.9163,0.9142,0.9145,0.9121,0.9124,0.9116,0.911,0.9072,0.906,0.9079,0.9013,0.9029,0.9024,0.9023,0.9018,0.9014,0.9017,0.909,0,0,0,0,0,0.9255,0.9231,0.9212,0.9179,0.917,0.9158,0.9143,0.914,0.912,0.9112,0.9097,0.9076,0.9051,0.9033,0.9008,0.8965,0.896,0.8946,0.8942,0.8939,0.8935,0.8912,0.8906,0.897,0.897,0.897,0,0,0.9239,0.9224,0.9209,0.9176,0.9161,0.9136,0.9151,0.9123,0.9104,0.9107,0.9072,0.906,0.9036,0.8996,0.8977,0.8985,0.8916,0.8936,0.8933,0.8931,0.8908,0.8902,0.8897,0.8968,0.8968,0.8968,0,0,0.9197,0.9184,0.9155,0.914,0.9119,0.9111,0.9104,0.9083,0.9075,0.904,0.9042,0.9018,0.8973,0.8957,0.8943,0.8896,0.8898,0.8888,0.8867,0.8844,0.8839,0.8835,0.8818,0.8812,0.8884,0.8884,0.8884,0,0.918,0.9143,0.9139,0.9112,0.9097,0.9101,0.9071,0.9057,0.9027,0.9017,0.9025,0.897,0.8954,0.891,0.8899,0.8887,0.8879,0.8891,0.884,0.8836,0.8832,0.8816,0.881,0.8883,0.8883,0.8883,0.8883,0,0.9123,0.9098,0.9077,0.9051,0.9033,0.9005,0.8996,0.8979,0.8977,0.8969,0.8932,0.8914,0.8885,0.8874,0.8872,0.883,0.8836,0.8842,0.8858,0.8825,0.881,0.8804,0.8881,0.8881,0.8882,0.8882,0,0,0.9072,0.9045,0.9037,0.9026,0.9002,0.8982,0.8953,0.8927,0.8913,0.8892,0.8868,0.883,0.8837,0.8821,0.8817,0.8797,0.8762,0.8806,0.8806,0.8799,0.8715,0.871,0.8703,0.8763,0.8762,0.8761,0.8717,0,0.9029,0.898,0.8976,0.8932,0.8908,0.8911,0.8886,0.8869,0.886,0.8838,0.8827,0.8801,0.8812,0.8802,0.8783,0.877,0.8745,0.8773,0.874,0.8739,0.8746,0.8695,0.869,0.8649,0.8711,0.871,0.8709,0,0.8972,0.8952,0.8906,0.8887,0.8876,0.8854,0.883,0.8809,0.8789,0.8784,0.8767,0.8766,0.8735,0.8752,0.871,0.873,0.8716,0.8708,0.8706,0.8703,0.8722,0.8691,0.8636,0.863,0.87,0.8701,0.8701,0,0.8939,0.8901,0.8868,0.8858,0.8835,0.882,0.8809,0.879,0.8775,0.8754,0.8744,0.8718,0.8704,0.8684,0.8676,0.8689,0.8634,0.865,0.8629,0.8629,0.8617,0.8618,0.8559,0.8608,0.8608,0.8608,0.8608,0,0.8892,0.8863,0.8854,0.8834,0.8802,0.8797,0.8766,0.8756,0.8739,0.8717,0.8717,0.8696,0.8686,0.8663,0.8656,0.8623,0.8616,0.8611,0.8609,0.8611,0.8612,0.8602,0.8604,0.8606,0.8607,0.8607,0.8607,0,0.885,0.8843,0.8808,0.8789,0.8784,0.8762,0.8745,0.8726,0.8717,0.8689,0.8682,0.8668,0.8641,0.8631,0.8598,0.8593,0.8554,0.8555,0.8562,0.8561,0.854,0.8543,0.8473,0.8464,0.8518,0.8518,0.8517,0,0.882,0.8799,0.8779,0.8765,0.8754,0.8731,0.8716,0.871,0.8694,0.8671,0.8654,0.8627,0.8606,0.8562,0.8548,0.8523,0.8523,0.85,0.8519,0.8521,0.8523,0.8524,0.8522,0.8497,0.8496,0.8496,0.8496,0,0.8768,0.8766,0.8745,0.8723,0.8706,0.8688,0.867,0.8658,0.8649,0.8631,0.8605,0.8588,0.8555,0.8528,0.8502,0.849,0.8491,0.849,0.8484,0.8485,0.849,0.8488,0.8553,0.8492,0.8492,0.8492,0.8492,0.8493,0.8732,0.8714,0.8697,0.8674,0.866,0.8644,0.8625,0.8615,0.8594,0.8567,0.8565,0.8536,0.8516,0.8482,0.8468,0.8445,0.8451,0.8442,0.8439,0.8437,0.8436,0.8494,0.844,0.844,0.844,0.844,0.8441,0,0.8681,0.8671,0.8649,0.8626,0.8607,0.8612,0.8593,0.8577,0.8552,0.8534,0.8514,0.8483,0.8458,0.8442,0.8417,0.8401,0.8401,0.8394,0.8395,0.8393,0.8432,0.844,0.8395,0.8395,0.8395,0.8395,0.8395,0.8395,0.8652,0.8621,0.8617,0.8579,0.8569,0.8542,0.8531,0.8516,0.8502,0.8468,0.8448,0.8439,0.8422,0.8395,0.8372,0.8368,0.8358,0.8351,0.8348,0.8385,0.839,0.8394,0.8402,0.8349,0.8349,0.831,0.831,0.831]}]]